AIC213 VILH-VIDP

Flight info

Callsign AIC213
Flight time 1h 10m
Altitude 36000
Route DCT 340712N0772941E 340830N0772736E 341105N0772348E 341135N0771700E 341224N0771330E DCT LELAX W39 SP SP7E
Aircraft A320/M-SDE3FGHIRWY/LB1

Departure

Time 2026-04-29 19:26
Airport Leh Kushok Bakula Rimpochee Airport (VILH)

Arrival

Time 2026-04-29 20:36
Airport Indira Gandhi International Airport (VIDP)
Time Latitude Longitude Altitude Speed Heading
2026-04-29 19:15 34.14152 77.55235 10826 ft 0 kts 158°
2026-04-29 19:17 34.14157 77.55233 10824 ft 4 kts 154°
2026-04-29 19:18 34.14171 77.55217 10826 ft 4 kts 81°
2026-04-29 19:18 34.14166 77.55197 10823 ft 16 kts 66°
2026-04-29 19:18 34.14163 77.55188 10823 ft 3 kts 66°
2026-04-29 19:22 34.14185 77.55244 10829 ft 12 kts 64°
2026-04-29 19:22 34.14185 77.55335 10844 ft 12 kts 167°
2026-04-29 19:22 34.14081 77.55408 10832 ft 20 kts 130°
2026-04-29 19:22 34.14058 77.55538 10839 ft 12 kts 85°
2026-04-29 19:23 34.14057 77.55635 10845 ft 15 kts 91°
2026-04-29 19:23 34.14062 77.55807 10857 ft 25 kts 92°
2026-04-29 19:23 34.14056 77.56020 10881 ft 15 kts 98°
2026-04-29 19:23 34.14048 77.56043 10884 ft 5 kts 117°
2026-04-29 19:24 34.13993 77.56057 10882 ft 9 kts 223°
2026-04-29 19:24 34.13984 77.55986 10874 ft 13 kts 260°
2026-04-29 19:24 34.13970 77.55921 10866 ft 0 kts 249°
2026-04-29 19:24 34.13969 77.55915 10866 ft 3 kts 253°
2026-04-29 19:25 34.13962 77.55888 10865 ft 0 kts 251°
2026-04-29 19:25 34.13944 77.55826 10859 ft 25 kts 250°
2026-04-29 19:25 34.13803 77.55306 10804 ft 104 kts 254°
2026-04-29 19:25 34.13483 77.54223 10686 ft 168 kts 250°
2026-04-29 19:26 34.13036 77.52793 11019 ft 188 kts 250°
2026-04-29 19:26 34.12592 77.51292 11723 ft 192 kts 251°
2026-04-29 19:26 34.12262 77.49710 12085 ft 201 kts 274°
2026-04-29 19:26 34.12719 77.48092 12328 ft 209 kts 300°
2026-04-29 19:27 34.13561 77.46592 12504 ft 224 kts 307°
2026-04-29 19:27 34.14558 77.45073 12632 ft 240 kts 310°
2026-04-29 19:27 34.15682 77.43494 12725 ft 260 kts 310°
2026-04-29 19:27 34.16765 77.41899 13795 ft 224 kts 309°
2026-04-29 19:28 34.17741 77.40486 14540 ft 219 kts 308°
2026-04-29 19:28 34.18674 77.38885 14390 ft 250 kts 298°
2026-04-29 19:28 34.19269 77.36842 14575 ft 261 kts 275°
2026-04-29 19:28 34.19049 77.34761 15390 ft 245 kts 244°
2026-04-29 19:29 34.17936 77.33192 15697 ft 257 kts 222°
2026-04-29 19:29 34.16539 77.31886 16345 ft 243 kts 223°
2026-04-29 19:29 34.15350 77.30537 17104 ft 232 kts 222°
2026-04-29 19:29 34.14140 77.29179 17154 ft 250 kts 222°
2026-04-29 19:30 34.12832 77.27725 17424 ft 258 kts 224°
2026-04-29 19:30 34.11560 77.26234 18036 ft 249 kts 226°
2026-04-29 19:30 34.10290 77.24821 18450 ft 252 kts 215°
2026-04-29 19:30 34.08686 77.23796 18436 ft 270 kts 198°
2026-04-29 19:31 34.06803 77.23289 18536 ft 285 kts 182°
2026-04-29 19:31 34.04859 77.23778 18746 ft 293 kts 149°
2026-04-29 19:31 34.03383 77.25476 18958 ft 301 kts 118°
2026-04-29 19:31 34.02823 77.27913 19143 ft 309 kts 87°
2026-04-29 19:32 34.02753 77.30378 20162 ft 266 kts 103°
2026-04-29 19:32 34.02198 77.32309 21419 ft 234 kts 118°
2026-04-29 19:32 34.01255 77.34018 20846 ft 270 kts 134°
2026-04-29 19:32 33.99698 77.35545 20484 ft 297 kts 148°
2026-04-29 19:33 33.97949 77.36699 21438 ft 273 kts 158°
2026-04-29 19:33 33.96206 77.37556 22020 ft 270 kts 160°
2026-04-29 19:33 33.94420 77.38359 22196 ft 280 kts 160°
2026-04-29 19:33 33.92549 77.39173 22403 ft 289 kts 161°
2026-04-29 19:34 33.90667 77.39962 23030 ft 280 kts 161°
2026-04-29 19:34 33.88845 77.40697 23665 ft 273 kts 162°
2026-04-29 19:34 33.87033 77.41398 23844 ft 283 kts 163°
2026-04-29 19:34 33.85096 77.42115 23839 ft 298 kts 163°
2026-04-29 19:35 33.83103 77.42817 24270 ft 295 kts 165°
2026-04-29 19:35 33.81179 77.43464 24967 ft 281 kts 165°
2026-04-29 19:35 33.79282 77.44073 25144 ft 287 kts 166°
2026-04-29 19:35 33.77280 77.44684 24925 ft 306 kts 166°
2026-04-29 19:36 33.75189 77.45289 25132 ft 307 kts 167°
2026-04-29 19:36 33.73159 77.45846 25798 ft 290 kts 168°
2026-04-29 19:36 33.71208 77.46351 26114 ft 287 kts 168°
2026-04-29 19:36 33.69193 77.46843 25854 ft 305 kts 169°
2026-04-29 19:37 33.67030 77.47369 25399 ft 330 kts 163°
2026-04-29 19:37 33.65555 77.47956 25202 ft 344 kts 160°
2026-04-29 19:37 33.62475 77.49360 25063 ft 365 kts 160°
2026-04-29 19:37 33.60060 77.50435 25174 ft 375 kts 160°
2026-04-29 19:38 33.57565 77.51461 25294 ft 383 kts 163°
2026-04-29 19:38 33.54943 77.52276 25431 ft 391 kts 168°
2026-04-29 19:38 33.52259 77.52925 25694 ft 394 kts 163°
2026-04-29 19:38 33.49675 77.54035 26007 ft 394 kts 160°
2026-04-29 19:39 33.26769 77.65804 26583 ft 319 kts 135°
2026-04-29 19:39 33.25217 77.67607 27152 ft 305 kts 139°
2026-04-29 19:39 33.23599 77.69254 27347 ft 306 kts 142°
2026-04-29 19:39 33.21872 77.70769 27433 ft 311 kts 147°
2026-04-29 19:40 33.19915 77.71933 27396 ft 317 kts 163°
2026-04-29 19:40 33.17730 77.72359 27448 ft 320 kts 178°
2026-04-29 19:40 33.15543 77.72391 27935 ft 308 kts 182°
2026-04-29 19:40 33.13435 77.72258 28340 ft 300 kts 186°
2026-04-29 19:41 33.11339 77.71969 28205 ft 310 kts 189°
2026-04-29 19:41 33.09157 77.71498 27930 ft 325 kts 193°
2026-04-29 19:41 33.06958 77.70825 27955 ft 328 kts 202°
2026-04-29 19:41 33.04963 77.69555 28198 ft 322 kts 217°
2026-04-29 19:42 33.03179 77.68067 28583 ft 313 kts 213°
2026-04-29 19:42 33.01929 77.67166 28819 ft 308 kts 208°
2026-04-29 19:42 32.99316 77.65769 28776 ft 317 kts 199°
2026-04-29 19:43 32.94964 77.64560 28957 ft 320 kts 186°
2026-04-29 19:43 32.92760 77.64417 29255 ft 315 kts 180°
2026-04-29 19:43 32.90602 77.64568 29414 ft 316 kts 173°
2026-04-29 19:44 32.86253 77.65775 29410 ft 326 kts 160°
2026-04-29 19:44 32.84172 77.66821 29557 ft 325 kts 153°
2026-04-29 19:44 32.82215 77.68134 29796 ft 321 kts 147°
2026-04-29 19:44 32.80394 77.69687 29909 ft 322 kts 143°
2026-04-29 19:45 32.78516 77.71167 29901 ft 326 kts 150°
2026-04-29 19:45 32.74321 77.73405 29906 ft 332 kts 165°
2026-04-29 19:45 32.72013 77.73782 29679 ft 342 kts 186°
2026-04-29 19:46 32.69719 77.73192 29753 ft 341 kts 205°
2026-04-29 19:46 32.67734 77.71767 30113 ft 329 kts 222°
2026-04-29 19:46 32.66226 77.69762 30356 ft 324 kts 237°
2026-04-29 19:46 32.65174 77.67393 30405 ft 326 kts 249°
2026-04-29 19:47 32.64511 77.64793 30252 ft 334 kts 256°
2026-04-29 19:47 32.62834 77.59675 30565 ft 328 kts 234°
2026-04-29 19:47 32.61352 77.57734 30591 ft 330 kts 216°
2026-04-29 19:48 32.59269 77.56359 30450 ft 339 kts 196°
2026-04-29 19:48 32.57741 77.55956 30396 ft 342 kts 184°
2026-04-29 19:48 32.54590 77.56390 30515 ft 342 kts 160°
2026-04-29 19:48 32.52502 77.57625 30722 ft 338 kts 145°
2026-04-29 19:49 32.50732 77.59399 31065 ft 331 kts 131°
2026-04-29 19:49 32.49307 77.61528 31219 ft 332 kts 125°
2026-04-29 19:49 32.47765 77.63578 31199 ft 335 kts 139°
2026-04-29 19:50 32.44093 77.67091 31191 ft 341 kts 143°
2026-04-29 19:50 32.42189 77.68747 31444 ft 338 kts 146°
2026-04-29 19:50 32.40226 77.70262 31488 ft 338 kts 151°
2026-04-29 19:50 32.32878 77.74496 31072 ft 338 kts 156°
2026-04-29 19:51 32.30669 77.75626 30600 ft 347 kts 158°
2026-04-29 19:51 32.28481 77.76715 30848 ft 347 kts 168°
2026-04-29 19:51 32.26103 77.77019 30959 ft 346 kts 190°
2026-04-29 19:51 32.23742 77.76447 31077 ft 350 kts 198°
2026-04-29 19:52 32.21378 77.75665 31196 ft 357 kts 199°
2026-04-29 19:52 32.18954 77.74837 31307 ft 365 kts 199°
2026-04-29 19:52 32.16482 77.73991 31424 ft 373 kts 199°
2026-04-29 19:52 32.14001 77.73142 31538 ft 383 kts 199°
2026-04-29 19:53 32.11415 77.72259 31650 ft 391 kts 199°
2026-04-29 19:53 32.08762 77.71354 31771 ft 399 kts 199°
2026-04-29 19:53 32.06063 77.70436 31888 ft 408 kts 199°
2026-04-29 19:53 32.03307 77.69499 32000 ft 415 kts 199°
2026-04-29 19:54 31.97646 77.67577 32237 ft 430 kts 199°
2026-04-29 19:54 31.94777 77.66605 32349 ft 437 kts 199°
2026-04-29 19:54 31.91834 77.65609 32463 ft 442 kts 199°
2026-04-29 19:55 31.88852 77.64600 32580 ft 448 kts 199°
2026-04-29 19:55 31.85830 77.63579 32692 ft 452 kts 199°
2026-04-29 19:55 31.82850 77.62574 32808 ft 456 kts 199°
2026-04-29 19:55 31.79727 77.61521 32999 ft 457 kts 199°
2026-04-29 19:56 31.76702 77.60502 33238 ft 457 kts 199°
2026-04-29 19:56 31.73641 77.59476 33501 ft 457 kts 199°
2026-04-29 19:56 31.70578 77.58450 33748 ft 457 kts 199°
2026-04-29 19:56 31.68542 77.57770 33919 ft 457 kts 199°
2026-04-29 19:57 31.65484 77.56753 34147 ft 457 kts 199°
2026-04-29 19:57 31.62417 77.55741 34355 ft 457 kts 199°
2026-04-29 19:57 31.59310 77.54895 34563 ft 461 kts 190°
2026-04-29 19:57 31.56090 77.54682 34717 ft 465 kts 184°
2026-04-29 19:58 31.52846 77.54642 34840 ft 467 kts 184°
2026-04-29 19:58 31.49587 77.54626 35007 ft 468 kts 184°
2026-04-29 19:58 31.46366 77.54627 35170 ft 469 kts 182°
2026-04-29 19:58 31.43085 77.54731 35331 ft 471 kts 182°
2026-04-29 19:59 31.39811 77.54784 35454 ft 471 kts 184°
2026-04-29 19:59 31.36521 77.54800 35594 ft 473 kts 184°
2026-04-29 19:59 31.29877 77.54832 35608 ft 482 kts 184°
2026-04-29 20:00 31.23093 77.54865 35599 ft 489 kts 184°
2026-04-29 20:00 31.16303 77.54903 35585 ft 492 kts 184°
2026-04-29 20:01 31.09484 77.54317 35579 ft 491 kts 190°
2026-04-29 20:01 31.02643 77.53409 35458 ft 498 kts 191°
2026-04-29 20:02 30.99235 77.52946 35611 ft 496 kts 191°
2026-04-29 20:02 30.95820 77.52487 35730 ft 495 kts 191°
2026-04-29 20:02 30.92382 77.52051 35398 ft 503 kts 191°
2026-04-29 20:02 30.90041 77.51750 35006 ft 514 kts 190°
2026-04-29 20:03 30.85299 77.51133 35139 ft 512 kts 190°
2026-04-29 20:03 30.81752 77.50671 35268 ft 509 kts 190°
2026-04-29 20:03 30.78290 77.50226 34857 ft 502 kts 190°
2026-04-29 20:03 30.74878 77.49801 34550 ft 485 kts 190°
2026-04-29 20:04 30.71568 77.49359 34147 ft 473 kts 191°
2026-04-29 20:04 30.68327 77.48907 33711 ft 466 kts 190°
2026-04-29 20:04 30.65111 77.48446 33025 ft 463 kts 191°
2026-04-29 20:04 30.61914 77.47972 32501 ft 465 kts 191°
2026-04-29 20:05 30.58688 77.47482 31794 ft 465 kts 191°
2026-04-29 20:05 30.55480 77.46979 31047 ft 464 kts 191°
2026-04-29 20:05 30.52315 77.46458 30335 ft 464 kts 191°
2026-04-29 20:05 30.49101 77.46026 29590 ft 464 kts 186°
2026-04-29 20:06 30.45866 77.45757 28679 ft 465 kts 186°
2026-04-29 20:06 30.42629 77.45503 27479 ft 468 kts 186°
2026-04-29 20:06 30.39368 77.45251 26233 ft 473 kts 186°
2026-04-29 20:06 30.36068 77.44996 24971 ft 477 kts 185°
2026-04-29 20:07 30.32740 77.44741 23700 ft 481 kts 186°
2026-04-29 20:07 30.29391 77.44488 22593 ft 481 kts 185°
2026-04-29 20:07 30.26076 77.44241 21724 ft 474 kts 186°
2026-04-29 20:07 30.22848 77.44006 20929 ft 467 kts 185°
2026-04-29 20:08 30.19613 77.43775 20142 ft 461 kts 185°
2026-04-29 20:08 30.17498 77.43626 19638 ft 458 kts 185°
2026-04-29 20:08 30.13270 77.43336 18659 ft 451 kts 186°
2026-04-29 20:08 30.10150 77.43127 17957 ft 447 kts 186°
2026-04-29 20:09 30.07050 77.42895 17180 ft 442 kts 187°
2026-04-29 20:09 30.04000 77.42585 16452 ft 437 kts 187°
2026-04-29 20:09 30.01056 77.42041 15771 ft 430 kts 195°
2026-04-29 20:09 29.98152 77.41267 15096 ft 425 kts 198°
2026-04-29 20:10 29.95374 77.40160 14441 ft 418 kts 204°
2026-04-29 20:10 29.92680 77.38921 13805 ft 414 kts 204°
2026-04-29 20:10 29.90008 77.37689 13169 ft 410 kts 204°
2026-04-29 20:10 29.87395 77.36490 12494 ft 407 kts 204°
2026-04-29 20:11 29.84771 77.35290 11798 ft 404 kts 204°
2026-04-29 20:11 29.82159 77.34099 11076 ft 401 kts 204°
2026-04-29 20:11 29.79572 77.32923 10365 ft 399 kts 204°
2026-04-29 20:11 29.76998 77.31757 9885 ft 390 kts 204°
2026-04-29 20:12 29.74534 77.30650 9760 ft 371 kts 204°
2026-04-29 20:12 29.72177 77.29604 9648 ft 354 kts 204°
2026-04-29 20:12 29.69955 77.28628 9527 ft 338 kts 204°
2026-04-29 20:12 29.67799 77.27686 9406 ft 324 kts 204°
2026-04-29 20:13 29.65733 77.26785 9278 ft 310 kts 204°
2026-04-29 20:13 29.63761 77.25926 9146 ft 297 kts 204°
2026-04-29 20:13 29.61867 77.25097 9029 ft 285 kts 205°
2026-04-29 20:13 29.60069 77.24254 8906 ft 273 kts 206°
2026-04-29 20:14 29.58357 77.23437 8777 ft 261 kts 206°
2026-04-29 20:14 29.56717 77.22641 8660 ft 251 kts 207°
2026-04-29 20:14 29.55133 77.21850 8368 ft 246 kts 207°
2026-04-29 20:14 29.53588 77.21064 8025 ft 245 kts 207°
2026-04-29 20:15 29.52040 77.20263 7680 ft 243 kts 207°
2026-04-29 20:15 29.50508 77.19456 7326 ft 242 kts 207°
2026-04-29 20:15 29.48992 77.18626 6988 ft 240 kts 211°
2026-04-29 20:15 29.47550 77.17665 6658 ft 238 kts 213°
2026-04-29 20:16 29.46142 77.16669 6336 ft 237 kts 213°
2026-04-29 20:16 29.44747 77.15660 5980 ft 236 kts 213°
2026-04-29 20:16 29.43365 77.14648 5634 ft 235 kts 212°
2026-04-29 20:16 29.41958 77.13711 5293 ft 233 kts 210°
2026-04-29 20:17 29.40563 77.12820 4960 ft 232 kts 209°
2026-04-29 20:17 29.39157 77.11918 4644 ft 230 kts 209°
2026-04-29 20:17 29.37784 77.11029 4669 ft 230 kts 210°
2026-04-29 20:17 29.36352 77.10100 4687 ft 249 kts 209°
2026-04-29 20:18 29.34759 77.09066 4680 ft 275 kts 210°
2026-04-29 20:18 29.33090 77.07985 4688 ft 276 kts 209°
2026-04-29 20:18 29.31413 77.06900 4686 ft 276 kts 210°
2026-04-29 20:18 29.29740 77.05819 4688 ft 276 kts 209°
2026-04-29 20:19 29.28087 77.04753 4686 ft 276 kts 209°
2026-04-29 20:19 29.26390 77.03711 4685 ft 276 kts 205°
2026-04-29 20:19 29.24632 77.02810 4687 ft 276 kts 204°
2026-04-29 20:19 29.22865 77.01936 4687 ft 277 kts 203°
2026-04-29 20:20 29.21092 77.01063 4689 ft 277 kts 203°
2026-04-29 20:20 29.19338 77.00200 4691 ft 277 kts 203°
2026-04-29 20:20 29.17580 76.99335 4690 ft 277 kts 203°
2026-04-29 20:20 29.15787 76.98452 4688 ft 281 kts 203°
2026-04-29 20:21 29.13984 76.97567 4690 ft 282 kts 203°
2026-04-29 20:21 29.12177 76.96682 4687 ft 282 kts 203°
2026-04-29 20:21 29.10373 76.95798 4679 ft 282 kts 203°
2026-04-29 20:21 29.08596 76.94927 4482 ft 280 kts 203°
2026-04-29 20:22 29.06816 76.94053 4057 ft 277 kts 203°
2026-04-29 20:22 29.05046 76.93183 3632 ft 275 kts 204°
2026-04-29 20:22 29.03298 76.92326 3328 ft 273 kts 203°
2026-04-29 20:22 29.01547 76.91471 3282 ft 274 kts 203°
2026-04-29 20:23 28.99823 76.90642 3284 ft 260 kts 202°
2026-04-29 20:23 28.98210 76.89892 3285 ft 240 kts 202°
2026-04-29 20:23 28.96711 76.89201 3284 ft 224 kts 202°
2026-04-29 20:23 28.95280 76.88545 3255 ft 225 kts 202°
2026-04-29 20:24 28.93827 76.87878 3063 ft 223 kts 202°
2026-04-29 20:24 28.92389 76.87218 2730 ft 222 kts 202°
2026-04-29 20:24 28.90959 76.86559 2384 ft 221 kts 202°
2026-04-29 20:24 28.89542 76.85905 2283 ft 221 kts 202°
2026-04-29 20:25 28.88121 76.85246 2287 ft 220 kts 202°
2026-04-29 20:25 28.86711 76.84604 2281 ft 210 kts 200°
2026-04-29 20:25 28.85399 76.84069 2287 ft 198 kts 200°
2026-04-29 20:25 28.84106 76.83535 2287 ft 198 kts 200°
2026-04-29 20:26 28.82813 76.83007 2290 ft 197 kts 199°
2026-04-29 20:26 28.81504 76.82536 2283 ft 197 kts 197°
2026-04-29 20:26 28.80182 76.82076 2287 ft 198 kts 197°
2026-04-29 20:26 28.78862 76.81623 2286 ft 198 kts 197°
2026-04-29 20:27 28.77538 76.81200 2301 ft 194 kts 193°
2026-04-29 20:27 28.76684 76.81031 2312 ft 181 kts 187°
2026-04-29 20:27 28.75123 76.80976 2286 ft 158 kts 181°
2026-04-29 20:27 28.73985 76.80989 2293 ft 178 kts 180°
2026-04-29 20:28 28.72667 76.81006 2279 ft 192 kts 180°
2026-04-29 20:28 28.71374 76.81044 2282 ft 178 kts 178°
2026-04-29 20:28 28.70203 76.81144 2286 ft 160 kts 176°
2026-04-29 20:28 28.69136 76.81249 2289 ft 152 kts 176°
2026-04-29 20:29 28.68076 76.81366 2292 ft 153 kts 175°
2026-04-29 20:29 28.67028 76.81490 2280 ft 153 kts 175°
2026-04-29 20:29 28.65982 76.81616 2288 ft 150 kts 175°
2026-04-29 20:29 28.64944 76.81800 2287 ft 151 kts 170°
2026-04-29 20:30 28.63916 76.82047 2296 ft 151 kts 169°
2026-04-29 20:30 28.62891 76.82298 2297 ft 150 kts 169°
2026-04-29 20:30 28.61874 76.82549 2291 ft 149 kts 169°
2026-04-29 20:30 28.60880 76.82907 2290 ft 150 kts 157°
2026-04-29 20:31 28.59958 76.83449 2290 ft 151 kts 153°
2026-04-29 20:31 28.59111 76.84164 2292 ft 153 kts 124°
2026-04-29 20:31 28.58702 76.85292 2281 ft 156 kts 106°
2026-04-29 20:31 28.58492 76.86508 2289 ft 157 kts 99°
2026-04-29 20:32 28.58364 76.87741 2297 ft 157 kts 98°
2026-04-29 20:32 28.58176 76.88965 2297 ft 157 kts 103°
2026-04-29 20:32 28.57943 76.90153 2297 ft 157 kts 102°
2026-04-29 20:32 28.57821 76.90982 2299 ft 157 kts 100°
2026-04-29 20:33 28.57629 76.92615 2295 ft 158 kts 99°
2026-04-29 20:33 28.57556 76.93861 2300 ft 158 kts 94°
2026-04-29 20:33 28.57525 76.95124 2316 ft 170 kts 93°
2026-04-29 20:33 28.57491 76.96594 2307 ft 199 kts 93°
2026-04-29 20:34 28.57450 76.98203 2288 ft 202 kts 93°
2026-04-29 20:34 28.57414 76.99670 2283 ft 171 kts 93°
2026-04-29 20:34 28.57410 77.00908 2207 ft 148 kts 90°
2026-04-29 20:34 28.57447 77.02053 2014 ft 138 kts 89°
2026-04-29 20:35 28.57431 77.03056 1871 ft 121 kts 91°
2026-04-29 20:35 28.57409 77.04181 1504 ft 163 kts 90°
2026-04-29 20:35 28.57403 77.05473 1980 ft 164 kts 96°
2026-04-29 20:35 28.57191 77.06724 1613 ft 159 kts 104°
2026-04-29 20:36 28.56862 77.07899 1139 ft 154 kts 107°
2026-04-29 20:36 28.56596 77.09064 762 ft 144 kts 99°
2026-04-29 20:36 28.56442 77.09853 750 ft 37 kts 104°
2026-04-29 20:36 28.56432 77.09896 751 ft 6 kts 108°
2026-04-29 20:37 28.56387 77.10030 751 ft 29 kts 111°
2026-04-29 20:37 28.56315 77.10255 752 ft 31 kts 109°
2026-04-29 20:37 28.56273 77.10489 748 ft 30 kts 110°
2026-04-29 20:37 28.56225 77.10719 748 ft 30 kts 85°
2026-04-29 20:38 28.56230 77.10958 751 ft 30 kts 86°
2026-04-29 20:38 28.56295 77.11176 749 ft 23 kts 71°
2026-04-29 20:38 28.56320 77.11296 751 ft 24 kts 79°
2026-04-29 20:38 28.56334 77.11385 751 ft 2 kts 78°
2026-04-29 20:39 28.56339 77.11400 748 ft 6 kts 68°
2026-04-29 20:39 28.56400 77.11460 751 ft 14 kts 13°
2026-04-29 20:39 28.56430 77.11464 750 ft 0 kts
2026-04-29 20:40 28.56442 77.11464 748 ft 0 kts 359°